TimePDT,TemperatureF,Dew PointF,Humidity,Sea Level PressureIn,VisibilityMPH,Wind Direction,Wind SpeedMPH,Gust SpeedMPH,PrecipitationIn,Events,Conditions,WindDirDegrees,DateUTC
12:53 AM,46.0,43.0,89,30.04,10.0,SE,5.8,-,N/A,,Clear,130,2012-10-30 07:53:00
1:53 AM,46.0,43.0,89,30.03,10.0,SSE,4.6,-,N/A,,Clear,160,2012-10-30 08:53:00
2:53 AM,41.0,39.9,96,30.04,10.0,Calm,Calm,-,N/A,,Mostly Cloudy,0,2012-10-30 09:53:00
4:53 AM,43.0,41.0,93,30.02,10.0,Calm,Calm,-,N/A,,Overcast,0,2012-10-30 11:53:00
5:53 AM,44.1,44.1,100,30.01,7.0,Calm,Calm,-,0.03,Rain,Light Rain,0,2012-10-30 12:53:00
6:53 AM,44.1,44.1,100,30.00,10.0,Calm,Calm,-,0.03,Rain,Light Rain,0,2012-10-30 13:53:00
7:53 AM,45.0,44.1,97,29.97,8.0,WNW,3.5,-,0.00,Rain,Light Rain,300,2012-10-30 14:53:00
8:53 AM,46.0,45.0,96,29.98,7.0,North,3.5,-,0.03,Rain,Light Rain,360,2012-10-30 15:53:00
9:53 AM,48.0,46.0,93,29.96,10.0,NE,4.6,-,0.01,Rain,Light Rain,40,2012-10-30 16:53:00
10:53 AM,48.0,46.9,96,29.95,8.0,Calm,Calm,-,0.01,,Overcast,0,2012-10-30 17:53:00
11:53 AM,48.9,48.0,97,29.96,10.0,Calm,Calm,-,0.00,Rain,Light Rain,0,2012-10-30 18:53:00
12:53 PM,50.0,48.9,96,29.94,6.0,Calm,Calm,-,0.01,Rain,Light Rain,0,2012-10-30 19:53:00
1:53 PM,50.0,48.9,96,29.94,8.0,East,3.5,-,0.01,Rain,Light Rain,80,2012-10-30 20:53:00
2:18 PM,50.0,48.2,94,29.92,8.0,Calm,Calm,-,0.01,Rain,Light Rain,0,2012-10-30 21:18:00
2:53 PM,51.1,48.9,92,29.94,10.0,Calm,Calm,-,0.01,,Overcast,0,2012-10-30 21:53:00
3:17 PM,50.0,50.0,100,29.92,4.0,Calm,Calm,-,0.01,Rain,Light Rain,0,2012-10-30 22:17:00
3:53 PM,50.0,48.9,96,29.94,3.0,Calm,Calm,-,0.04,Rain,Light Rain,0,2012-10-30 22:53:00
4:49 PM,50.0,48.2,94,29.91,1.8,Calm,Calm,-,0.04,Rain,Light Rain,0,2012-10-30 23:49:00
4:50 PM,50.0,48.9,96,29.94,1.8,Calm,Calm,-,0.04,Rain,Light Rain,0,2012-10-30 23:50:00
5:13 PM,50.0,48.2,94,29.91,3.0,NE,3.5,-,0.00,Rain,Light Rain,40,2012-10-31 00:13:00
5:26 PM,50.0,48.2,94,29.91,2.5,Calm,Calm,-,0.01,Rain,Light Rain,0,2012-10-31 00:26:00
5:48 PM,50.0,50.0,100,29.91,2.5,Calm,Calm,-,0.03,Rain,Light Rain,0,2012-10-31 00:48:00
5:53 PM,50.0,50.0,100,29.93,2.5,Calm,Calm,-,0.04,Rain,Light Rain,0,2012-10-31 00:53:00
6:00 PM,50.0,48.2,94,29.91,2.5,West,4.6,-,0.01,Rain,Rain,280,2012-10-31 01:00:00
6:09 PM,50.0,50.0,100,29.91,4.0,Calm,Calm,-,0.02,Rain,Light Rain,0,2012-10-31 01:09:00
6:33 PM,50.0,50.0,100,29.91,2.5,SSE,4.6,-,0.05,Rain,Rain,160,2012-10-31 01:33:00
6:51 PM,50.0,50.0,100,29.91,2.5,SSE,5.8,-,0.06,Rain,Light Rain,150,2012-10-31 01:51:00
6:53 PM,50.0,50.0,100,29.93,2.5,SSE,5.8,-,0.07,Rain,Light Rain,150,2012-10-31 01:53:00
7:12 PM,51.8,51.8,100,29.90,3.0,SSE,8.1,-,0.01,Rain,Light Rain,160,2012-10-31 02:12:00
7:24 PM,51.8,51.8,100,29.90,5.0,SSE,8.1,-,0.02,Rain,Light Rain,160,2012-10-31 02:24:00
7:53 PM,51.1,51.1,100,29.92,5.0,South,8.1,-,0.04,Rain,Light Rain,170,2012-10-31 02:53:00
8:53 PM,52.0,51.1,97,29.92,8.0,South,5.8,-,0.05,Rain,Light Rain,170,2012-10-31 03:53:00
9:34 PM,51.8,51.8,100,29.90,8.0,SE,4.6,-,0.01,Rain,Light Rain,140,2012-10-31 04:34:00
9:53 PM,52.0,51.1,97,29.92,6.0,Calm,Calm,-,0.01,,Overcast,0,2012-10-31 04:53:00
10:37 PM,51.8,51.8,100,29.91,7.0,Calm,Calm,-,0.00,Rain,Light Rain,0,2012-10-31 05:37:00
10:53 PM,51.1,51.1,100,29.92,7.0,Calm,Calm,-,0.00,Rain,Light Rain,0,2012-10-31 05:53:00
11:28 PM,50.0,48.2,94,29.91,1.8,North,3.5,-,0.01,Rain,Light Rain,360,2012-10-31 06:28:00
11:38 PM,50.0,50.0,100,29.92,3.0,Calm,Calm,-,0.01,Rain,Light Rain,0,2012-10-31 06:38:00
11:53 PM,50.0,50.0,100,29.91,5.0,North,4.6,-,0.01,Rain,Light Rain,350,2012-10-31 06:53:00